Regional Weather Roundup
Issued by NWS Midland/Odessa, TX

Home | Current Version | Previous Version | Text Only | Print | Product List | Glossary On
Versions: 1 2 3 4 5 6 7 8 9 10 11 12 13 14 15 16 17 18 19 20 21 22 23 24 25 26 27 28 29 30 31 32 33 34 35 36 37 38 39 40 41 42 43 44 45 46 47 48 49 50
000
ASUS44 KMAF 200310
RWRMAF
MIDLAND AREA WEATHER ROUNDUP
NATIONAL WEATHER SERVICE MIDLAND TX
1000 PM CDT THU OCT 19 2017

...IN SOUTHWEST TEXAS AND SOUTHEAST NEW MEXICO...

CITY           SKY/WX    TMP DP  RH WIND       PRES   REMARKS
ALPINE         MOCLDY    67  45  45 S8        30.12S
ANDREWS        MOCLDY    63  52  67 SE10      30.06S
ARTESIA        DRIZZLE   63  57  82 W17       30.08S
BIG SPRING     PTCLDY    64  51  64 CALM      30.08R
CARLSBAD       PTCLDY    61  59  93 SW5       30.02R
DRYDEN           N/A     70  56  61 E16       30.01S
FORT STOCKTON  CLEAR     65  57  75 SE17G25   30.02R
GUAD PASS      CLOUDY    59  50  72 NE25      30.10S
HOBBS          NOT AVBL
LAMESA         FAIR      63  52  67 S9        30.07S
MARFA          CLOUDY    62  41  46 E3        30.09F
MIDLAND AIRPK  CLEAR     66  53  61 S6        30.06S
MIDLAND INTL   CLOUDY    65  52  62 SE7       30.05R
ODESSA         NOT AVBL
PECOS          CLOUDY    66  55  65 E12       29.98F
PRESIDIO       FAIR      77  43  29 NE18G25   29.95S
SEMINOLE       PTCLDY    58  51  77 CALM      30.07S
SNYDER         CLOUDY    65  51  61 SE9       30.05S
WINK           CLEAR     66  52  60 SE13      30.01R
$$
...OTHER STATIONS IN TEXAS...

CITY           SKY/WX    TMP DP  RH WIND       PRES   REMARKS
ABILENE        CLOUDY    68  55  63 SE13      30.06R
AMARILLO       CLOUDY    65  51  60 S12       30.05S
AUSTIN         PTCLDY    67  58  72 S5        30.07R
BROWNSVILLE    CLEAR     74  72  93 CALM      30.02R
CORPUS CHRISTI PTCLDY    74  71  91 E14       30.03R
DALLAS FTW     MOCLDY    72  54  53 SE12      30.07R
DEL RIO        PTCLDY    72  60  66 SE8       30.01S
EL PASO        TSTM      65  32  29 N26G35    30.03R
HOUSTON INT    CLOUDY    70  61  73 E7        30.10S
LUBBOCK        PTCLDY    60  53  77 SE6       30.06R
SAN ANGELO     CLOUDY    66  52  60 CALM      30.06R
SAN ANTONIO    PTCLDY    72  64  76 SE9       30.07R
WACO           PTCLDY    72  58  61 SE8       30.07S
WICHITA FALLS  PTCLDY    64  52  64 S15       30.05R
$$
...OTHER LOCATIONS IN NEW MEXICO...

CITY           SKY/WX    TMP DP  RH WIND       PRES   REMARKS
ALAMOGORDO     LGT RAIN  57  54  88 NE9       30.18R
ALBUQUERQUE    LGT RAIN  58  51  78 SE8       30.12R
CANNON AFB     MOCLDY    56  56 100 S6        30.07F
CLOVIS         CLOUDY    55  54  96 S7        30.08S
HOLLOMAN AFB   LGT RAIN  57  52  82 NW12        N/A
ROSWELL        CLOUDY    66  49  54 SW12      30.03F
RUIDOSO        CLOUDY    48  45  87 SW13      30.21S
SANTA FE       CLOUDY    57  41  55 SW12      30.10S
TRUTH OR CONSE CLOUDY    57  54  89 E5        30.09F
TUCUMCARI      CLEAR     63  50  62 S12       30.00R
$$



USA.gov is the U.S. government's official web portal to all federal, state and local government web resources and services.